World > North America > United States > Texas > Sylvester  

Sylvester, TX Hourly Weather Updates

Feedback E-mail the Weather

Quick Clicks

Sylvester, TX Weather Maps

°F °C°F °C
Sylvester Weather Map
UTC Time: 4/17/2024, 10:51
Your Time:

Sylvester, TX Regional Weather

Expires:202404171100;;891745
ASUS44 KSJT 171010
RWRSJT
WEST CENTRAL TEXAS REGIONAL WEATHER ROUNDUP
NATIONAL WEATHER SERVICE SAN ANGELO TX
500 AM CDT WED APR 17 2024

NOTE: "FAIR" INDICATES FEW OR NO CLOUDS BELOW 12,000 FEET WITH NO
SIGNIFICANT WEATHER AND/OR OBSTRUCTIONS TO VISIBILITY.


TXZ049-054-064>066-071>073-076>078-098-099-113-114-127-128-139-140-
154-155-168>170-171100-
...LOCATIONS ACROSS WEST CENTRAL TEXAS...
  
CITY           SKY/WX    TMP DP  RH WIND       PRES   REMARKS
SAN ANGELO     CLOUDY    61  43  51 S6        29.91R TC  16           
ABILENE        CLOUDY    66  63  90 SE8       29.90R TC  19           
DYESS AFB      CLOUDY    68  58  70 S5        29.85R TC  20           
JUNCTION       CLOUDY    76  68  76 S5        29.92S TC  24           
SWEETWATER       N/A     63  24  22 S10       29.93S TC  17           
BROWNWOOD      CLOUDY    68  68 100 SE3       29.91R TC  20           
COLEMAN        CLOUDY    67  63  84 S3        29.91S TC  20           
SAN SABA       CLOUDY    69  68  94 E5        29.92S FOG     TC  21   
SONORA         CLOUDY    73  66  78 S6        29.98R TC  23           
OZONA          CLOUDY    61  34  36 NW6       29.96S TC  16           
BRADY          CLOUDY    68  66  94 S5        29.92R FOG     TC  20   
$$


SKY/WX - Weather  TMP - Temperature  DP - Dew Point  RH - Humidity
WIND - Wind Direction/Speed PRES - Barometric Pressure VSB - Visibility
WCI - Wind Chill Index E13G22 Wind - East Wind 13 mph/Gusts of 22 mph

Trending Headlines

Trending Entertainment Headlines

Sylvester Radar Loop

Use the map search tool if you want to place a location marker on the radar map...

Sylvester Quick Facts

National Two Day Weather Forecast


E-mail the Sylvester Weather Forecast

Voice your opinion or tell us about page issues...